This demonstration page uses our WeatherBlox Daily Observations layout. Learn more.

Left ArrowRight Arrow

47.50024, -111.30081

Hourly Observations for March 24, 2015

Temp ( °F °C ) Dew Point ( °F °C ) Humidity (%) Winds ( mph kmh ) Pressure ( in mb ) Visibility ( mi km ) Precip ( " mm )
12:53 am 00:53 Clear 30 -1.1 24 -4.4 79 79 SW 13 20 29.91 1013 10 16 0.00 0.00
1:53 am 01:53 Clear 32 0 25 -3.9 75 75 SW 13 20 29.90 1012 10 16 0.00 0.00
2:53 am 02:53 Clear 30 -1.1 24 -4.4 79 79 SW 12 19 29.91 1013 10 16 0.00 0.00
3:53 am 03:53 Clear 31 -0.6 24 -4.4 76 76 SW 10 17 29.88 1012 10 16 0.00 0.00
4:53 am 04:53 Mostly Clear 31 -0.6 25 -3.9 79 79 SW 10 17 29.88 1012 10 16 0.00 0.00
5:53 am 05:53 Mostly Clear 33 0.6 25 -3.9 72 72 SSW 12 19 29.90 1013 10 16 0.00 0.00
6:53 am 06:53 Cloudy 33 0.6 25 -3.9 72 72 SW 10 17 29.91 1013 10 16 0.00 0.00
7:53 am 07:53 Cloudy 34 1.1 25 -3.9 70 70 SSW 9 15 29.92 1013 10 16 0.00 0.00
8:53 am 08:53 Partly Cloudy 39 3.9 24 -4.4 55 55 SW 10 17 29.92 1013 10 16 0.00 0.00
9:53 am 09:53 Mostly Cloudy 43 6.1 23 -5 45 45 SW 12 19 29.93 1013 10 16 0.00 0.00
10:53 am 10:53 Cloudy 45 7.2 20 -6.7 37 37 W 6 9 29.93 1014 10 16 0.00 0.00
11:53 am 11:53 Mostly Cloudy 46 7.8 20 -6.7 35 35 Calm 29.93 1013 10 16 0.00 0.00
12:53 pm 12:53 Cloudy 46 7.8 25 -3.9 44 44 NE 10 17 29.93 1014 10 16 0.00 0.00
1:53 pm 13:53 Cloudy 45 7.2 27 -2.8 49 49 NE 15 24 29.93 1014 10 16 0.00 0.00
2:53 pm 14:53 Mostly Cloudy 49 9.4 26 -3.3 41 41 NNE 15 24 29.94 1014 10 16 0.00 0.00
3:53 pm 15:53 Mostly Sunny 46 7.8 26 -3.3 46 46 NNE 14 22 29.96 1015 10 16 0.00 0.00
4:53 pm 16:53 Partly Cloudy 44 6.7 27 -2.8 51 51 NE 15 24 29.98 1015 10 16 0.00 0.00
5:53 pm 17:53 Cloudy 41 5 27 -2.8 57 57 NNE 12 19 30.02 1017 10 16 0.00 0.00
6:53 pm 18:53 Cloudy 39 3.9 27 -2.8 62 62 NE 10 17 30.06 1018 10 16 0.00 0.00
7:03 pm 19:03 Cloudy 39 4 27 -3 61 61 NNE 13 20 30.00 1016 10 16 0.00 0.00
7:53 pm 19:53 Cloudy 36 2.2 28 -2.2 73 73 NE 9 15 30.10 1019 10 16 0.00 0.00
8:53 pm 20:53 Cloudy with Light Snow 33 0.6 26 -3.3 75 75 N 13 20 30.13 1020 5 8 0.00 0.03
9:16 pm 21:16 Cloudy with Light Snow 30 -1 27 -3 86 86 N 13 20 30.18 1022 3 5 0.00 0.00
9:34 pm 21:34 Cloudy with Light Snow 30 -1 28 -2 93 93 N 12 19 30.18 1022 2 3 0.00 0.00
9:44 pm 21:44 Cloudy with Light Snow 30 -1 28 -2 93 93 N 10 17 30.18 1022 2 3 0.00 0.00
9:53 pm 21:53 Cloudy with Light Snow 30 -1.1 28 -2.2 92 92 N 12 19 30.16 1021 2 3 0.00 0.03
10:35 pm 22:35 Cloudy with Light Snow 30 -1 28 -2 93 93 N 8 13 30.24 1024 2 2 0.00 0.03
10:50 pm 22:50 Cloudy with Light Snow 28 -2 28 -2 100 100 N 10 17 30.24 1024 1 2 0.00 0.00
10:53 pm 22:53 Cloudy with Light Snow 29 -1.7 28 -2.2 96 96 N 9 15 30.19 1022 1 2 0.01 0.25
11:07 pm 23:07 Cloudy with Light Snow 28 -2 28 -2 100 100 N 7 11 30.24 1024 2 2 0.01 0.25
11:19 pm 23:19 Cloudy with Light Snow 28 -2 28 -2 100 100 N 7 11 30.27 1025 2 3 0.01 0.25
11:32 pm 23:32 Cloudy with Light Snow 28 -2 28 -2 100 100 N 5 7 30.27 1025 2 3 0.00 0.00
11:53 pm 23:53 Cloudy with Light Snow 29 -1.7 29 -1.7 100 100 N 3 6 30.20 1023 2 3 0.01 0.25

Powered by AerisWeather